Location: Unspecified
(0.0000°N, 0.0000°E)
Time: 17:03:21
(UTC+01:00)

DELTA 2 R/B (1) - Visible Passes

Search period start: 06 March 2015 00:00
Search period end: 16 March 2015 00:00
Orbit: 791 x 804 km, 39.6° (Epoch: 04 March)

Date Brightness Start Highest point End Pass type
(mag) Time Alt. Az. Time Alt. Az. Time Alt. Az.
06 Mar 5.9 04:30:44 18° SE 04:30:44 18° SE 04:32:03 10° SE visible
06 Mar 5.3 06:11:34 14° SW 06:13:04 15° SW 06:15:58 10° S visible
07 Mar 5.4 05:43:01 16° SSW 05:43:01 16° SSW 05:45:42 10° S visible
08 Mar 5.8 05:14:25 13° S 05:14:25 13° S 05:15:22 10° S visible
